Погода в Кашире

Погода в Кашире : погода сейчас, прогноз погоды и архив. Всё, что Вы хотите узнать о погоде в Кашире!

Поиск расширенной информации на нашем сайте:

Другие новости

Новости СМИ2

Главная страница сайта

Новости сайта

03.07.2017

Напоминаем, что на нашем специализированном сайте Метеоцентр.Азия вы можете получить высокодетализированные автоматические прогнозы погоды по пунктам России, СНГ и мира в авиационном формате (включающие направление и скорость ветра, видимость, явления погоды, количество и форму облачности, нижнюю и верхнюю границу облачности).


Погода в Кашире - сегодня

Время (UTC), дата Ветер
(°,м/с) 
Видим.   Явления Облачность Т
(°С)
Тd
(°С)
f(%) Тe
(°С)
Pmin
(гПа)
dP
(гПа)
Po
(мм)
O2
(г/м3)
Тmin Tmax R s Состояние
почвы
21 17.04.18 150 (ЮВ) 10 км    10/10 600 м 
[Sc]
+13.3 +7.9 70 +14  1013.5  -1.2  741  283           
00 18.04.18 200 (Ю) 10 км    10/10 300 м кучево-дожд. 
[Cb cap]
+13 +6.4 64 +13  1012.1  -1.4  740  283           
06 18.04.18 260 (З) 10 км  слаб. ливневой дождь  10/10 300 м кучево-дожд. 
[Cb cap]
+9.5 +7 84 +10  1009.6  -1.1  737  286  +9.5    0.5    влажная 
09 18.04.18 240 (ЮЗ) 4000 м  дымка{ливн. осадки}  10/10 300 м кучево-дожд. 
[Cb cap]
+10 +9 93 +11  1008.2  -1.2  737  285           
21 18.04.18 310 (СЗ) 10 км  слаб. ливневой дождь  10/10 300 м кучево-дожд. 
[Cb cap]
+5.5 +4.6 94 +4  1006.2  -2.2  735  289           
06 19.04.18 350 (С) 4{10}  10 км  слаб. ливневой дождь  10/10 300 м кучево-дожд. 
[Cb cap]
+6.5 +4.9 89 +5  1002.2  -0.3  732  287  +5.4    10    мокрая 
18 19.04.18 070 (В) 2{12}  10 км  {ливн. осадки}  10/10 300 м кучево-дожд. 
[Cb cap]
+8.9 +3.3 68 +9  1007.2  2.4  736  287    +11.9  0.0     
21 19.04.18 360 (С) 10 км    6/6 600 м 
[Sc]
+9.4 -1 48 +8  1007.8  0.6  736  287           
09 20.04.18 010 (С) 4{11}  20000 м    6/0 средняя 
[Ac trans]
+13 -1.7 36 +13  1013.3  0.7  740  285           
21 20.04.18 230 (ЮЗ) 10 км    9/9 600 м 
[Sc]
+8.8 -1.1 50 +10  1011.9  -1.3  739  289           
00 21.04.18 230 (ЮЗ) 10 км    9/9 600 м 
[Sc]
+8.1 -1.1 52 +8  1009.2  -2.6  737  289           
06 21.04.18 230 (ЮЗ) 20000 м  {ливн. осадки}  9/3 600 м средняя, верхняя 
[Sc|Ac trans|Ci sp]
+9.8 +4.9 72 +9  1002.4  -3.2  732  284  +7.9    0.0    влажная 
18 21.04.18 280 (З) 4{18}  10 км  в посл. час ливневой дождь{гроза}  9/9 300 м кучево-дожд. 
[Cb cap]
+11.7 +8.2 79 +11  988.1  722  277    +20.3     
06 22.04.18 330 (СЗ) 6-11{14}  10 км  {ливн. осадки}  9/9 300 м кучево-дожд. 
[Cb cap]
+4 -1.6 67 +1  996.8  1.9  728  289  +3.5    0.3    влажная 
21 22.04.18 340 (С) 2{10}  10 км    9/9 300 м кучево-дожд. 
[Cb cap]
+0.5 -3.6 74 1008.7  1.7  736  296           
00 23.04.18 310 (СЗ) 10 км    6/6 600 м 
[Sc]
-0.5 -4 77 -2  1009.7  0.8  737  298           
03 23.04.18 330 (СЗ) 10 км    ясно 
-1 -5.8 70 -3  1010.9  1.2  738  299  -1.2         
15 23.04.18 330 (СЗ) 5{11}  20000 м    ясно 
+7.2 -11.1 26 +5  1011.9  0.2  739  291           
21 23.04.18 270 (З) 10 км    ясно 
+0.9 -9.2 47 +2  1014  0.2  740  298           
00 24.04.18 270 (З) 10 км    ясно 
-0.4 -9.2 51 1014.5  0.4  740  300           
03 24.04.18 280 (З) 10 км    ясно 
-1.1 -7 64 -1  1015.1  0.5  741  300  -1.4         
09 24.04.18 280 (З) 20000 м    9/0 верхняя 
[Ci fib]
+9 -10.7 24 +9  1013.4  -0.8  740  290           
12 24.04.18 270 (З) 20000 м    9/0 верхняя 
[Ci fib]
+10.9 -10.2 22 +11  1011.7  -1.4  739  287           
15 24.04.18 280 (З) 10 км    9/3 600 м верхняя 
[Sc|Ci fib]
+11.2 -8.9 23 +11  1010.2  -1.5  738  286           
21 24.04.18 210 (ЮЗ) 10 км    10/10 600 м 
[Sc]
+6.6 -4.4 45 +8  1009.9  -0.8  737  291           
Время (UTC), дата Ветер
(°,м/с) 
Видим.   Явления Облачность Т
(°С)
Тd
(°С)
f(%) Тe
(°С)
Pmin
(гПа)
dP
(гПа)
Po
(мм)
O2
(г/м3)
Тmin Tmax R s Состояние
почвы

Для получения пояснительной информации подведите курсор к названию столбца.

ПОГОДА в Кашире - архив

Всё, что Вы хотите узнать о погоде в Кашире - удобно и подробно!

Выберите нужную дату (начиная с 1 января 2015* года) и нажмите кнопку "Найти".
Будут отображены архивные сводки погоды по пункту Кашира, начиная с указанной даты.


Отображать данные в формате CSV (для использования в таблицах Excel)


Внимание! Наш архив погоды предназначен исключительно для личного некоммерческого использования в познавательных целях. Если Вам необходимы официальные справки о состоянии погоды (для производственных, юридических, коммерческих и т.п. целей), обращайтесь в органы Росгидромета.

*Примечание: данная дата относится к архиву по метеостанциям СССР (Россия, СНГ, Балтия).
Архив по метеостанциям Зарубежной Европы и Азии (кроме Китая) хранится 10 дней, по другим регионам земного шара (Китай, Африка, Америка, Австралия, Океания) - 1 день.

Кашира - район местоположения метеостанции


Название, широта, долгота, высота метеостанции:
Кашира 54.8°ш. 38.2°д. 221 м над ур. моря [Российская Федерация]

Дополнительная информация

В oтличие oт бoльшинства пoгoдных сайтoв мы публикуем пoдрoбную метеoинфoрмацию в детальнoм прoфессиoнальнoм фoрмате.

Характеристики температуры и влажнoсти вoздуха измеряются на высoте 2 м в тени вдали oт зданий и деревьев.
Скoрoсть ветра измеряется на высoте 10 м (на урoвне рoста челoвека скoрoсть ветра ниже в 1.5-2 раза). Если метеoстанция нахoдится в гoрoде или в лесу, тo скoрoсть ветра занижена на 2-4 м/с пo сравнению с oткрытым местoм. Скoрoсть ветра над акватoриями крупных рек и oзёр, а также на вершинах хoлмoв на 2-5 м/с выше, чем в oбычных услoвиях.
Атмoсфернoе давление в разных тoчках местнoсти мoжет значительнo oтличаться oт давления на метеoстанции, в зависимoсти oт услoвий рельефа (при пoдъёме на 10 м давление пoнижается примернo на 1 мм рт.ст.).